• Em Portugal
  • Lista de países
  • Para 7 dias
  • Temperatura da água
  • Mapas de satélite
  • Mapa do tempo
  • Widgets de tempo
  • user-avatar
    Iniciar Sessão

    Previsão horária em Skorodumka

    Hoje, 21 Setembro, Sexta-feira

    Tempo Temperatura Precipitação Vento Pressão Humidade
    00:00 +17°C° 0 mm 2 m/s 747 mmHg 87%
    01:00 +17°C° 0 mm 2 m/s 747 mmHg 88%
    02:00 +16°C° 0 mm 1 m/s 748 mmHg 89%
    03:00 +16°C° 0 mm 1 m/s 748 mmHg 90%
    04:00 +16°C° 0 mm 1 m/s 748 mmHg 90%
    05:00 +15°C° 0 mm 1 m/s 748 mmHg 90%
    06:00 +18°C° 0 mm 1 m/s 748 mmHg 85%
    07:00 +19°C° 0 mm 1 m/s 749 mmHg 80%
    08:00 +21°C° 0 mm 1 m/s 749 mmHg 75%
    09:00 +22°C° 0 mm 1 m/s 749 mmHg 68%
    10:00 +23°C° 0 mm 1 m/s 749 mmHg 62%
    11:00 +25°C° 0 mm 1 m/s 749 mmHg 55%
    12:00 +26°C° 0 mm 1 m/s 749 mmHg 52%
    13:00 +26°C° 0 mm 1 m/s 749 mmHg 49%
    14:00 +27°C° 0 mm 1 m/s 749 mmHg 45%
    15:00 +26°C° 0 mm 1 m/s 749 mmHg 50%
    16:00 +25°C° 0 mm 1 m/s 749 mmHg 54%
    17:00 +21°C° 0 mm 0 m/s 749 mmHg 58%
    18:00 +20°C° 0 mm 0 m/s 749 mmHg 59%
    19:00 +22°C° 0 mm 1 m/s 749 mmHg 61%
    20:00 +21°C° 0 mm 1 m/s 749 mmHg 63%
    21:00 +20°C° 0 mm 1 m/s 749 mmHg 64%
    22:00 +20°C° 0 mm 1 m/s 749 mmHg 66%
    23:00 +19°C° 0 mm 1 m/s 749 mmHg 67%

    Amanhã, 22 Setembro, Sábado

    Tempo Temperatura Precipitação Vento Pressão Humidade
    00:00 +18°C° 0 mm 2 m/s 749 mmHg 68%
    01:00 +18°C° 0 mm 2 m/s 749 mmHg 70%
    02:00 +17°C° 0 mm 2 m/s 749 mmHg 71%
    03:00 +17°C° 0 mm 2 m/s 749 mmHg 72%
    04:00 +17°C° 0 mm 2 m/s 749 mmHg 73%
    05:00 +16°C° 0 mm 2 m/s 749 mmHg 74%
    06:00 +17°C° 0 mm 3 m/s 749 mmHg 70%
    07:00 +19°C° 0 mm 3 m/s 749 mmHg 66%
    08:00 +20°C° 0 mm 4 m/s 749 mmHg 61%
    09:00 +22°C° 0 mm 4 m/s 748 mmHg 56%
    10:00 +23°C° 0 mm 4 m/s 748 mmHg 51%
    11:00 +26°C° 0 mm 5 m/s 748 mmHg 47%
    12:00 +26°C° 0 mm 5 m/s 747 mmHg 45%
    13:00 +27°C° 0 mm 5 m/s 747 mmHg 43%
    14:00 +27°C° 0 mm 5 m/s 747 mmHg 42%
    15:00 +26°C° 0 mm 4 m/s 746 mmHg 46%
    16:00 +25°C° 0 mm 4 m/s 746 mmHg 51%
    17:00 +22°C° 0 mm 3 m/s 745 mmHg 55%
    18:00 +21°C° 0 mm 4 m/s 745 mmHg 55%
    19:00 +21°C° 0 mm 4 m/s 745 mmHg 55%
    20:00 +20°C° 0 mm 4 m/s 745 mmHg 56%
    21:00 +20°C° 0 mm 4 m/s 744 mmHg 56%
    22:00 +19°C° 0 mm 5 m/s 744 mmHg 56%
    23:00 +19°C° 0 mm 5 m/s 743 mmHg 57%

    Depois de amanhã, 23 Setembro, Domingo

    Tempo Temperatura Precipitação Vento Pressão Humidade
    00:00 +19°C° 0 mm 5 m/s 743 mmHg 57%
    01:00 +19°C° 0 mm 5 m/s 742 mmHg 58%
    02:00 +17°C° 0 mm 5 m/s 742 mmHg 59%
    03:00 +17°C° 0 mm 5 m/s 741 mmHg 59%
    04:00 +17°C° 0 mm 5 m/s 741 mmHg 59%
    05:00 +17°C° 0 mm 5 m/s 740 mmHg 59%
    06:00 +17°C° 0 mm 5 m/s 740 mmHg 60%
    07:00 +17°C° 0 mm 6 m/s 740 mmHg 61%
    08:00 +19°C° 0 mm 6 m/s 740 mmHg 62%
    09:00 +16°C° 0.6 mm 6 m/s 740 mmHg 67%
    10:00 +15°C° 0.6 mm 6 m/s 740 mmHg 72%
    11:00 +14°C° 0.6 mm 6 m/s 740 mmHg 78%
    12:00 +13°C° 1.1 mm 6 m/s 740 mmHg 79%
    13:00 +10°C° 1.1 mm 7 m/s 741 mmHg 81%
    14:00 +9°C° 1.1 mm 7 m/s 741 mmHg 82%
    15:00 +9°C° 0.3 mm 6 m/s 741 mmHg 81%
    16:00 +9°C° 0.3 mm 6 m/s 742 mmHg 80%
    17:00 +10°C° 0.3 mm 5 m/s 742 mmHg 79%
    18:00 +9°C° 0 mm 5 m/s 742 mmHg 81%
    19:00 +9°C° 0 mm 5 m/s 742 mmHg 84%
    20:00 +10°C° 0 mm 4 m/s 743 mmHg 86%
    21:00 +8°C° 0 mm 4 m/s 743 mmHg 87%
    22:00 +8°C° 0 mm 4 m/s 743 mmHg 88%
    23:00 +8°C° 0 mm 4 m/s 743 mmHg 88%

    24 Setembro, Segunda-feira

    Tempo Temperatura Precipitação Vento Pressão Humidade
    00:00 +8°C° 0 mm 4 m/s 743 mmHg 89%
    01:00 +7°C° 0 mm 4 m/s 743 mmHg 90%
    02:00 +7°C° 0 mm 4 m/s 743 mmHg 91%
    03:00 +7°C° 0 mm 4 m/s 744 mmHg 92%
    04:00 +7°C° 0 mm 3 m/s 744 mmHg 93%
    05:00 +7°C° 0 mm 3 m/s 744 mmHg 94%
    06:00 +8°C° 0 mm 3 m/s 744 mmHg 90%
    07:00 +8°C° 0 mm 4 m/s 744 mmHg 85%
    08:00 +10°C° 0 mm 4 m/s 744 mmHg 80%
    09:00 +11°C° 0 mm 4 m/s 744 mmHg 74%
    10:00 +13°C° 0 mm 4 m/s 744 mmHg 67%
    11:00 +14°C° 0 mm 4 m/s 744 mmHg 61%
    12:00 +14°C° 0 mm 4 m/s 744 mmHg 58%
    13:00 +15°C° 0 mm 4 m/s 744 mmHg 56%
    14:00 +16°C° 0 mm 3 m/s 743 mmHg 54%
    15:00 +14°C° 0 mm 3 m/s 743 mmHg 57%
    16:00 +14°C° 0 mm 3 m/s 742 mmHg 60%
    17:00 +13°C° 0 mm 3 m/s 742 mmHg 64%
    18:00 +13°C° 0 mm 4 m/s 741 mmHg 62%
    19:00 +13°C° 0 mm 5 m/s 740 mmHg 61%
    20:00 +11°C° 0 mm 6 m/s 740 mmHg 59%
    21:00 +11°C° 1.4 mm 7 m/s 739 mmHg 63%
    22:00 +11°C° 1.4 mm 8 m/s 738 mmHg 67%
    23:00 +10°C° 1.4 mm 9 m/s 737 mmHg 71%

    25 Setembro, Terça-feira

    Tempo Temperatura Precipitação Vento Pressão Humidade
    00:00 +10°C° 1.6 mm 9 m/s 736 mmHg 75%
    01:00 +9°C° 1.6 mm 10 m/s 735 mmHg 80%
    02:00 +9°C° 1.6 mm 10 m/s 734 mmHg 84%
    03:00 +10°C° 0.4 mm 9 m/s 734 mmHg 84%
    04:00 +10°C° 0.4 mm 8 m/s 734 mmHg 83%
    05:00 +10°C° 0.4 mm 8 m/s 733 mmHg 82%
    06:00 +10°C° 0 mm 8 m/s 733 mmHg 79%
    07:00 +10°C° 0 mm 8 m/s 733 mmHg 76%
    08:00 +10°C° 0 mm 9 m/s 733 mmHg 74%
    09:00 +10°C° 0 mm 9 m/s 732 mmHg 72%
    10:00 +10°C° 0 mm 9 m/s 732 mmHg 70%
    11:00 +10°C° 0 mm 9 m/s 732 mmHg 68%
    12:00 +10°C° 0 mm 9 m/s 732 mmHg 68%
    13:00 +9°C° 0 mm 10 m/s 732 mmHg 67%
    14:00 +9°C° 0 mm 10 m/s 731 mmHg 67%
    15:00 +8°C° 0.1 mm 10 m/s 731 mmHg 69%
    16:00 +8°C° 0.1 mm 10 m/s 731 mmHg 72%
    17:00 +7°C° 0.1 mm 9 m/s 731 mmHg 74%
    18:00 +7°C° 0.2 mm 9 m/s 731 mmHg 76%
    19:00 +6°C° 0.2 mm 9 m/s 731 mmHg 78%
    20:00 +6°C° 0.2 mm 9 m/s 731 mmHg 80%
    21:00 +6°C° 0.3 mm 9 m/s 732 mmHg 81%
    22:00 +6°C° 0.3 mm 9 m/s 732 mmHg 82%
    23:00 +6°C° 0.3 mm 9 m/s 732 mmHg 82%

    26 Setembro, Quarta-feira

    Tempo Temperatura Precipitação Vento Pressão Humidade
    00:00 +5°C° 0.3 mm 9 m/s 733 mmHg 82%
    01:00 +5°C° 0.3 mm 9 m/s 734 mmHg 82%
    02:00 +5°C° 0.3 mm 9 m/s 734 mmHg 82%
    03:00 +3°C° 0.2 mm 9 m/s 735 mmHg 82%
    04:00 +3°C° 0.2 mm 9 m/s 736 mmHg 81%
    05:00 +4°C° 0.2 mm 8 m/s 737 mmHg 81%
    06:00 +4°C° 0 mm 8 m/s 738 mmHg 79%
    07:00 +4°C° 0 mm 8 m/s 739 mmHg 78%
    08:00 +4°C° 0 mm 8 m/s 739 mmHg 77%
    09:00 +4°C° 0 mm 7 m/s 740 mmHg 75%
    10:00 +4°C° 0 mm 7 m/s 741 mmHg 74%
    11:00 +4°C° 0 mm 7 m/s 742 mmHg 72%
    12:00 +5°C° 0 mm 7 m/s 742 mmHg 71%
    13:00 +5°C° 0 mm 7 m/s 743 mmHg 70%
    14:00 +7°C° 0 mm 6 m/s 743 mmHg 69%
    15:00 +7°C° 0.1 mm 6 m/s 744 mmHg 70%
    16:00 +6°C° 0.1 mm 5 m/s 745 mmHg 70%
    17:00 +6°C° 0.1 mm 4 m/s 745 mmHg 71%
    18:00 +6°C° 0 mm 4 m/s 746 mmHg 73%
    19:00 +5°C° 0 mm 4 m/s 746 mmHg 76%
    20:00 +4°C° 0 mm 3 m/s 747 mmHg 78%
    21:00 +4°C° 0 mm 3 m/s 747 mmHg 79%
    22:00 +4°C° 0 mm 3 m/s 748 mmHg 81%
    23:00 +4°C° 0 mm 3 m/s 748 mmHg 82%
    Mostrar mais